Caribou, ME

10:39 PM EDT on September 29, 2016 (GMT -0400)
Caribou Municipal

Weather History for KCAR - July, 2013

Change the Weather History Date:

Friday, July 26, 2013

  Actual Average Record
Temperature  
Mean Temperature 59 °F 66 °F  
Max Temperature 62 °F 76 °F 93 °F (1963)
Min Temperature 56 °F 56 °F 42 °F (1993)
Degree Days  
Heating Degree Days 6 2  
Month to date heating degree days 26 54  
Since 1 June heating degree days 204 219  
Since 1 July heating degree days 26 54  
Cooling Degree Days 0 3  
Month to date cooling degree days 118 64  
Year to date cooling degree days 149 103  
Since 1 June cooling degree days 141 98  
Growing Degree Days 8 (Base 50)    
Moisture  
Dew Point 57 °F    
Average Humidity 93    
Maximum Humidity 100    
Minimum Humidity 86    
Precipitation  
Precipitation 0.95 in 0.13 in 0.95 in (2013)
Month to date precipitation 6.70 3.47  
Year to date precipitation 26.78 20.37  
Snow  
Snow 0.00 in 0.00 in 0.00 in (2002)
Month to date snowfall 0.0 0.0  
Since 1 June snowfall 0.0 0.0  
Since 1 July snowfall 0.0 0.0  
Snow Depth 0.00 in    
Sea Level Pressure  
Sea Level Pressure 30.09 in    
Wind  
Wind Speed 9 mph (NNE)    
Max Wind Speed 16 mph    
Max Gust Speed 22 mph    
Visibility 7 miles    
Events Rain    
T = Trace of Precipitation, MM = Missing Value Source: NWS Daily Summary

Daily Weather History Graph

Daily Weather History Graph

Search for Another Location

Airport or City:

Trip Planner

Search our weather history database for the weather conditions in past years. The results will help you decide how hot, cold, wet, or windy it might be!

Date:

Astronomy

Jul. 26, 2013 Rise Set
Actual Time 5:04 AM EDT 8:11 PM EDT
Civil Twilight 4:28 AM EDT 8:47 PM EDT
Nautical Twilight 3:41 AM EDT 9:34 PM EDT
Astronomical Twilight 2:43 AM EDT 10:31 PM EDT
Moon 10:00 PM EDT (7/26) 9:58 AM EDT (7/26)
Length of Visible Light 16h 19m
Length of Day
15h 06m
Waning Gibbous, 80% of the Moon is Illuminated
Jul 26
Waning Gibbous
Jul 29
Last Quarter
Aug 6
New
Aug 14
First Quarter
Aug 20
Full

Hourly Weather History & Observations

Time (EDT) Temp. Dew Point Humidity Pressure Visibility Wind Dir Wind Speed Gust Speed Precip Events Conditions
12:54 AM 55.9 °F 53.1 °F 90% 30.17 in 10.0 mi Calm Calm - N/A   Clear
1:54 AM 57.0 °F 53.1 °F 87% 30.16 in 10.0 mi NNE 4.6 mph - N/A   Clear
2:54 AM 57.0 °F 53.1 °F 87% 30.14 in 10.0 mi North 8.1 mph - N/A   Clear
3:54 AM 55.9 °F 53.1 °F 90% 30.15 in 10.0 mi NNE 5.8 mph - N/A   Clear
4:54 AM 55.9 °F 53.1 °F 90% 30.15 in 10.0 mi North 8.1 mph - N/A   Scattered Clouds
5:54 AM 57.0 °F 54.0 °F 89% 30.16 in 10.0 mi North 6.9 mph - N/A   Overcast
6:54 AM 57.9 °F 55.0 °F 90% 30.16 in 10.0 mi North 5.8 mph - N/A   Overcast
7:54 AM 57.9 °F 55.0 °F 90% 30.16 in 10.0 mi NE 4.6 mph - N/A   Overcast
8:54 AM 60.1 °F 55.9 °F 86% 30.16 in 10.0 mi NE 4.6 mph - 0.00 in Rain Light Rain
9:54 AM 60.1 °F 57.0 °F 90% 30.15 in 10.0 mi NNE 8.1 mph - 0.01 in Rain Light Rain
10:54 AM 61.0 °F 57.9 °F 90% 30.16 in 10.0 mi NNE 6.9 mph - 0.01 in Rain Light Rain
11:40 AM 60.8 °F 57.2 °F 88% 30.14 in 8.0 mi NE 9.2 mph - 0.01 in Rain Light Rain
11:54 AM 61.0 °F 57.9 °F 90% 30.15 in 4.0 mi NE 6.9 mph - 0.03 in Rain Rain
12:02 PM 60.8 °F 57.2 °F 88% 30.13 in 2.5 mi NNE 9.2 mph - 0.02 in Rain Rain
12:16 PM 60.8 °F 57.2 °F 88% 30.13 in 4.0 mi NE 6.9 mph - 0.05 in Rain Light Rain
12:38 PM 60.8 °F 57.2 °F 88% 30.12 in 6.0 mi NNE 9.2 mph - 0.08 in Rain Light Rain
12:54 PM 61.0 °F 59.0 °F 93% 30.13 in 6.0 mi NNE 9.2 mph - 0.09 in Rain Light Rain
1:12 PM 60.8 °F 59.0 °F 94% 30.12 in 7.0 mi NE 10.4 mph - 0.01 in Rain Light Rain
1:27 PM 60.8 °F 59.0 °F 94% 30.12 in 6.0 mi NNE 6.9 mph - 0.02 in Rain Light Rain
1:54 PM 61.0 °F 59.0 °F 93% 30.12 in 5.0 mi NNE 9.2 mph - 0.06 in Rain Light Rain
2:43 PM 60.8 °F 59.0 °F 94% 30.09 in 7.0 mi NNE 10.4 mph - 0.04 in Rain Light Rain
2:54 PM 62.1 °F 59.0 °F 90% 30.10 in 8.0 mi NNE 9.2 mph - 0.05 in Rain Light Rain
3:54 PM 61.0 °F 59.0 °F 93% 30.08 in 7.0 mi NNE 10.4 mph 17.3 mph 0.05 in Rain Light Rain
4:33 PM 60.8 °F 59.0 °F 94% 30.02 in 6.0 mi NNE 13.8 mph 19.6 mph 0.06 in Rain Rain
4:54 PM 60.1 °F 57.9 °F 93% 30.03 in 7.0 mi NNE 12.7 mph - 0.10 in Rain Light Rain
5:54 PM 60.1 °F 57.9 °F 93% 30.04 in 3.0 mi North 11.5 mph - 0.12 in Rain Rain
6:07 PM 59.0 °F 57.2 °F 94% 30.03 in 2.5 mi NNE 10.4 mph - 0.05 in Rain Heavy Rain
6:17 PM 59.0 °F 57.2 °F 94% 30.03 in 2.0 mi North 10.4 mph - 0.08 in Rain Heavy Rain
6:33 PM 59.0 °F 57.2 °F 94% 30.03 in 2.5 mi North 9.2 mph - 0.12 in Rain Rain
6:54 PM 59.0 °F 57.0 °F 93% 30.04 in 1.8 mi North 10.4 mph - 0.18 in Rain Rain
7:33 PM 57.2 °F 57.2 °F 100% 30.02 in 2.5 mi NNE 10.4 mph - 0.13 in Rain Rain
7:54 PM 57.9 °F 57.0 °F 97% 30.03 in 3.0 mi North 11.5 mph - 0.17 in Rain Rain
8:54 PM 57.9 °F 55.9 °F 93% 30.01 in 7.0 mi NNE 13.8 mph 20.7 mph 0.05 in Rain Light Rain
9:54 PM 57.9 °F 55.9 °F 93% 30.00 in 8.0 mi NNE 10.4 mph - 0.02 in Rain Light Rain
10:54 PM 57.9 °F 55.9 °F 93% 29.98 in 10.0 mi NNE 11.5 mph - 0.01 in   Overcast
11:20 PM 57.2 °F 55.4 °F 94% 29.96 in 10.0 mi NNE 8.1 mph - N/A   Overcast
11:54 PM 57.9 °F 55.9 °F 93% 29.96 in 10.0 mi NNE 6.9 mph - N/A   Overcast